Regional Weather Roundup
Issued by NWS

Home | Current Version | Previous Version | Graphics & Text | Print | Product List | Glossary On
Versions: 1 2 3 4 5 6 7 8 9 10 11 12 13 14 15 16 17 18 19 20 21 22 23 24 25 26 27 28 29 30 31 32 33 34 35 36 37 38 39 40 41 42 43 44 45 46 47 48 49 50
000
ASUS43 KFSD 302110
RWRSD

WEATHER ROUNDUP FOR SOUTH DAKOTA
NATIONAL WEATHER SERVICE SIOUX FALLS SD
400 PM CDT TUE SEP 30 2014

NOTE: "FAIR" INDICATES FEW OR NO CLOUDS BELOW 12,000 FEET WITH NO
SIGNIFICANT WEATHER AND/OR OBSTRUCTIONS TO VISIBILITY.


SDZ001>005-009-010-012>017-302200-
NORTHWEST AND NORTH CENTRAL SOUTH DAKOTA

CITY           SKY/WX    TMP DP  RH WIND       PRES   REMARKS
BUFFALO          N/A     53  51  93 NW14      29.44S
FAITH            N/A     55  54  96 W20       29.40R
MOBRIDGE       CLOUDY    65  54  67 S23G39    29.37F
$$

SDZ012>016-024>037-041>051-057-063-072>074-302200-
SOUTHWEST AND SOUTH CENTRAL SOUTH DAKOTA

CITY           SKY/WX    TMP DP  RH WIND       PRES   REMARKS
RAPID CTY ARPT PTSUNNY   63  45  51 NW26G33   29.54R
PIERRE         CLOUDY    69  52  54 SW18G29   29.44S
CUSTER         PTSUNNY   52  43  71 W17G31    29.65R
ELLSWORTH AFB  PTSUNNY   61  46  58 NW24G36   29.53R
PHILIP         PTSUNNY   64  53  67 W35G44    29.48R
PINE RIDGE     PTSUNNY   66  48  52 W22G32    29.62R
WINNER         MOCLDY    74  45  35 SW25G37   29.56R
$$

SDZ004>011-016>023-039-040-302200-
NORTHEAST SOUTH DAKOTA

CITY           SKY/WX    TMP DP  RH WIND       PRES   REMARKS
ABERDEEN       SUNNY     67  58  72 SE29G40   29.53F
WATERTOWN      CLOUDY    59  56  89 SE15G25   29.68F
SISSETON         N/A     50  49  96 S17G28    29.71F
$$

SDZ017-020-022-023-036>040-048>070-302200-
SOUTHEAST SOUTH DAKOTA

CITY           SKY/WX    TMP DP  RH WIND       PRES   REMARKS
SIOUX FALLS    CLOUDY    65  61  87 S20G29    29.72F
HURON          PTSUNNY   73  61  65 SE20G31   29.53F
CHAMBERLAIN    CLOUDY    71  47  43 S25G33    29.56R
MITCHELL       MOSUNNY   77  48  35 S21G32    29.58F
YANKTON        MOSUNNY   75  61  60 SE23      29.67F
$$

ABBREVIATIONS USED IN REMARKS
   TC - TEMPERATURE IN CELSIUS
  WCI - WIND CHILL INDEX
   HX - HEAT INDEX
  VSB - VISIBILITY




USA.gov is the U.S. government's official web portal to all federal, state and local government web resources and services.